Location: Couloutre
(47.4081°N, 3.2259°E)
Time: 07:30:49
(UTC+00:00)

Cosmos 1674 Rocket - Pass Details

Date: 27 February 2020
Orbit: 602 x 631 km, 82.5° (Epoch: 30 March)

Event Time Altitude Azimuth Distance (km) Brightness Sun altitude
Rises 19:59:56 0° 350° (N) 2,933 7.4 -26.2°
Reaches altitude 10° 20:02:11 10° 350° (N) 2,019 6.5 -26.6°
Enters shadow 20:05:11 42° 349° (N) 902 4.5 -27.0°
